Myrtle Beach, SC

11:58 AM EST on December 15, 2017 (GMT -0500)
Myrtle Beach International

Weather History for KMYR - January, 2013

Change the Weather History Date:

Sunday, January 6, 2013

  Actual Average Record
Temperature  
Mean Temperature 48 °F -  
Max Temperature 55 °F 55 °F 77 °F (1955)
Min Temperature 41 °F 35 °F 18 °F (1999)
Degree Days  
Heating Degree Days 17    
Moisture  
Dew Point 42 °F    
Average Humidity 83    
Maximum Humidity 93    
Minimum Humidity 54    
Precipitation  
Precipitation 0.00 in - - ()
Sea Level Pressure  
Sea Level Pressure 30.20 in    
Wind  
Wind Speed 2 mph (WSW)    
Max Wind Speed 9 mph    
Max Gust Speed -    
Visibility 10 miles    
Events Rain    
Averages and records for this station are not official NWS values.
T = Trace of Precipitation, MM = Missing Value Source: NWS Daily Summary

Daily Weather History Graph

Daily Weather History Graph

Search for Another Location

Airport or City:

Trip Planner

Search our weather history database for the weather conditions in past years. The results will help you decide how hot, cold, wet, or windy it might be!

Date:

Astronomy

Jan. 06, 2013 Rise Set
Actual Time 7:21 AM EST 5:22 PM EST
Civil Twilight 6:53 AM EST 5:49 PM EST
Nautical Twilight 6:22 AM EST 6:20 PM EST
Astronomical Twilight 5:52 AM EST 6:51 PM EST
Moon 1:39 AM EST (1/6) 12:43 PM EST (1/6)
Length of Visible Light 10h 56m
Length of Day
10h 01m
Waning Crescent, 33% of the Moon is Illuminated
Jan 6
Waning Crescent
Jan 11
New
Jan 18
First Quarter
Jan 26
Full
Feb 3
Last Quarter

Hourly Weather History & Observations

Time (EST) Temp. Windchill Dew Point Humidity Pressure Visibility Wind Dir Wind Speed Gust Speed Precip Events Conditions
12:15 AM 41.0 °F - 39.2 °F 93% 30.30 in 10.0 mi Calm Calm - N/A   Partly Cloudy
12:35 AM 41.0 °F - 37.4 °F 87% 30.29 in 10.0 mi Calm Calm - N/A   Clear
12:55 AM 41.0 °F - 37.4 °F 87% 30.28 in 10.0 mi Calm Calm - N/A   Clear
1:15 AM 42.8 °F - 37.4 °F 81% 30.27 in 10.0 mi Calm Calm - N/A   Clear
1:35 AM 42.8 °F - 39.2 °F 87% 30.26 in 10.0 mi Calm Calm - N/A   Scattered Clouds
1:55 AM 42.8 °F - 39.2 °F 87% 30.27 in 10.0 mi Calm Calm - N/A   Mostly Cloudy
2:15 AM 42.8 °F - 39.2 °F 87% 30.26 in 10.0 mi Calm Calm - N/A   Scattered Clouds
2:35 AM 42.8 °F - 39.2 °F 87% 30.26 in 10.0 mi Calm Calm - N/A   Overcast
2:55 AM 42.8 °F - 39.2 °F 87% 30.25 in 10.0 mi Calm Calm - N/A   Mostly Cloudy
3:15 AM 42.8 °F - 41.0 °F 93% 30.24 in 10.0 mi Calm Calm - N/A   Mostly Cloudy
3:35 AM 42.8 °F - 39.2 °F 87% 30.24 in 10.0 mi Calm Calm - N/A   Overcast
3:55 AM 44.6 °F - 42.8 °F 93% 30.23 in 9.0 mi Calm Calm - N/A   Overcast
4:15 AM 44.6 °F - 42.8 °F 93% 30.23 in 10.0 mi Calm Calm - N/A   Mostly Cloudy
4:35 AM 44.6 °F - 42.8 °F 93% 30.22 in 9.0 mi Calm Calm - N/A   Scattered Clouds
4:55 AM 44.6 °F - 42.8 °F 93% 30.21 in 10.0 mi Calm Calm - N/A   Partly Cloudy
5:15 AM 44.6 °F - 41.0 °F 87% 30.21 in 10.0 mi Calm Calm - N/A   Mostly Cloudy
5:35 AM 44.6 °F - 41.0 °F 87% 30.21 in 10.0 mi Calm Calm - N/A   Overcast
5:50 AM 44.6 °F 40.7 °F 42.8 °F 93% 30.32 in 6.0 mi SW 6.9 mph - N/A   Overcast
6:45 AM 46.4 °F - 44.6 °F 93% 30.22 in 10.0 mi Calm Calm - N/A   Overcast
7:45 AM 46.4 °F - 44.6 °F 93% 30.22 in 10.0 mi Calm Calm - N/A   Overcast
8:50 AM 46.4 °F - 42.8 °F 87% 30.23 in 10.0 mi Calm Calm - N/A   Overcast
9:50 AM 48.2 °F - 39.2 °F 71% 30.23 in 10.0 mi Calm Calm - N/A   Overcast
10:50 AM 50.0 °F - 42.8 °F 76% 30.22 in 10.0 mi Calm Calm - N/A   Overcast
11:45 AM 51.8 °F - 42.8 °F 71% 30.21 in 10.0 mi Calm Calm - N/A   Overcast
12:50 PM 51.8 °F - 39.2 °F 62% 30.17 in 10.0 mi Variable 5.8 mph - N/A   Overcast
1:50 PM 53.6 °F - 41.0 °F 62% 30.15 in 10.0 mi Variable 5.8 mph - N/A   Overcast
2:45 PM 55.4 °F - 39.2 °F 54% 30.12 in 10.0 mi South 6.9 mph - N/A   Overcast
3:45 PM 53.6 °F - 42.8 °F 67% 30.12 in 10.0 mi South 6.9 mph - N/A   Overcast
4:48 PM 51.8 °F - 42.8 °F 71% 30.11 in 10.0 mi South 4.6 mph - N/A   Overcast
5:50 PM 51.8 °F - 44.6 °F 76% 30.11 in 10.0 mi SSW 4.6 mph - N/A   Overcast
6:50 PM 51.8 °F - 46.4 °F 82% 30.10 in 10.0 mi SW 5.8 mph - N/A   Overcast
7:45 PM 51.8 °F - 46.4 °F 82% 30.10 in 10.0 mi SW 9.2 mph - N/A Rain Light Rain
8:45 PM 51.8 °F - 44.6 °F 76% 30.12 in 10.0 mi West 5.8 mph - N/A   Overcast
9:45 PM 50.0 °F - 42.8 °F 76% 30.13 in 10.0 mi West 5.8 mph - N/A   Overcast
10:45 PM 48.2 °F - 44.6 °F 87% 30.14 in 10.0 mi WNW 5.8 mph - N/A   Overcast
10:55 PM 48.2 °F - 44.6 °F 87% 30.15 in 10.0 mi West 4.6 mph - N/A   Overcast
11:15 PM 48.2 °F - 44.6 °F 87% 30.15 in 10.0 mi WNW 6.9 mph - N/A   Mostly Cloudy
11:35 PM 48.2 °F - 42.8 °F 82% 30.15 in 10.0 mi WNW 8.1 mph - N/A   Mostly Cloudy
11:55 PM 48.2 °F - 42.8 °F 82% 30.16 in 10.0 mi WNW 9.2 mph - N/A   Overcast